[[{"header":{"parameterUnit":"m.s-1","parameterCategory":1,"la1":30.2991,"la2":30.254,"lo1":-89.0895,"lo2":-89.0444,"dy":0.0017,"dx":0.0017,"nx":28,"ny":28,"refTime":"2023-06-28T21:00:00:Z","depth":0,"parameterNumber":2,"parameterNumberName":"U-component_of_WINDS"},"data":[0,0,0,0,0,0,0,0,0,0,0,0,0,0,0,0,0,0,0,0,0,0,0,0,0,0,0,0,0,0,0,0,0,0,0,0,0,0,0,0,0,0,0,0,0,0,0,0,0,0,0,0,0,0,0,0,0,0,-0.8912,-0.8912,0,-0.8899,-0.8899,-0.8899,-0.8913,-0.8914,-0.8915,-0.8915,-0.8899,-0.8898,-0.8897,0,0,0,0,0,0,0,0,0,0,0,0,0,-0.8948,-0.8947,-0.8912,-0.8912,-0.8912,-0.8899,-0.8899,-0.8899,-0.8913,-0.8914,-0.8915,-0.8915,-0.8899,-0.8898,-0.8897,0,0,0,0,0,0,0,0,0,0,0,0,0,-0.8933,-0.8947,-0.8912,-0.8918,-0.8918,-0.8899,-0.8899,-0.8899,-0.8913,-0.8914,-0.8915,-0.8916,-0.89,-0.8898,-0.8897,-0.8871,0,0,-0.8893,-0.8892,0,0,0,0,0,0,0,0,-0.8934,-0.8932,-0.8917,-0.8917,-0.8918,-0.8909,-0.8906,-0.8889,-0.8913,-0.8915,-0.8915,-0.8916,-0.8901,-0.89,-0.8896,-0.8871,-0.887,-0.8892,-0.8892,-0.8891,-0.8891,0,0,0,0,0,0,0,-0.8935,-0.8933,-0.8907,-0.8917,-0.8917,-0.892,-0.8919,-0.8903,-0.8904,-0.8915,-0.8916,-0.8914,-0.8902,-0.8897,-0.8895,-0.887,-0.8892,-0.8891,-0.889,-0.889,-0.8823,-0.8822,0,0,0,0,0,0,-0.8936,-0.8934,-0.8907,-0.8907,-0.8928,-0.8919,-0.8918,-0.8911,-0.8904,-0.8904,-0.8914,-0.8915,-0.8899,-0.8897,-0.8895,-0.8864,-0.8891,-0.889,-0.8889,-0.8824,-0.8822,-0.8821,0,0,0,0,0,0,-0.8937,-0.8934,-0.8908,-0.892,-0.8917,-0.8917,-0.891,-0.891,-0.8905,-0.8903,-0.8903,-0.8909,-0.8899,-0.8897,-0.8877,-0.8863,-0.8889,-0.8888,-0.8825,-0.8823,-0.8822,-0.8801,0,0,0,0,0,0,-0.8938,-0.8934,-0.8924,-0.892,-0.8917,-0.8891,-0.8909,-0.8909,-0.8903,-0.8905,-0.8898,-0.8898,-0.89,-0.8879,-0.8876,-0.8862,-0.8887,-0.8826,-0.8824,-0.8822,-0.8803,-0.8799,-0.8796,0,0,0,0,0,-0.8939,-0.8918,-0.8924,-0.892,-0.8905,-0.889,-0.8888,-0.8892,-0.8902,-0.8892,-0.8891,-0.8898,-0.8866,-0.8877,-0.8873,-0.8859,-0.8827,-0.8825,-0.8823,-0.8805,-0.88,-0.8796,0,0,0,0,0,0,-0.892,-0.8918,-0.8924,-0.8901,-0.8896,-0.8893,-0.888,-0.8887,-0.8877,-0.8879,-0.8884,-0.8882,-0.8861,-0.8858,-0.8871,-0.8833,-0.8848,-0.8845,-0.8836,-0.8831,-0.8828,-0.8828,-0.8885,0,0,0,0,0,-0.8913,-0.8902,-0.8901,-0.8881,-0.8878,-0.888,-0.8874,-0.8877,-0.8871,-0.8869,-0.8866,-0.8859,-0.8848,-0.884,-0.8829,-0.8804,-0.8802,-0.8792,-0.8788,-0.8786,-0.8782,-0.8768,-0.8763,-0.8815,-0.8815,-0.8815,0,0,-0.8899,-0.8897,-0.8889,-0.8877,-0.8874,-0.8861,-0.8878,-0.8864,-0.8854,-0.8866,-0.8847,-0.8845,-0.8838,-0.8816,-0.8806,-0.8812,-0.8768,-0.8783,-0.8781,-0.8779,-0.8766,-0.8761,-0.8756,-0.8813,-0.8813,-0.8814,0,0,-0.8866,-0.8864,-0.8847,-0.8843,-0.8838,-0.8839,-0.8835,-0.8831,-0.883,-0.8812,-0.8821,-0.881,-0.879,-0.8784,-0.8779,-0.8745,-0.8751,-0.8742,-0.8723,-0.8709,-0.8705,-0.8701,-0.8688,-0.8684,-0.8739,-0.8739,-0.8739,0,-0.8849,-0.8831,-0.8837,-0.8823,-0.8817,-0.8829,-0.8812,-0.8808,-0.8798,-0.8794,-0.8802,-0.8778,-0.8774,-0.875,-0.8742,-0.8738,-0.8733,-0.8742,-0.8705,-0.8702,-0.8698,-0.8686,-0.8681,-0.8738,-0.8738,-0.8738,-0.8738,0,-0.8809,-0.8797,-0.8784,-0.8776,-0.8769,-0.8753,-0.8757,-0.8749,-0.8754,-0.8754,-0.8735,-0.8731,-0.8719,-0.8715,-0.8719,-0.8691,-0.8696,-0.8705,-0.8719,-0.8692,-0.868,-0.8676,-0.8736,-0.8737,-0.8737,-0.8737,0,0,-0.8762,-0.8759,-0.8753,-0.875,-0.8745,-0.8735,-0.8721,-0.871,-0.8703,-0.8697,-0.8683,-0.8667,-0.8676,-0.867,-0.8674,-0.8662,-0.8634,-0.8672,-0.8672,-0.8664,-0.8603,-0.8594,-0.8589,-0.864,-0.8639,-0.8638,-0.8603,0,-0.8728,-0.8702,-0.8708,-0.8682,-0.867,-0.8682,-0.8669,-0.8664,-0.8665,-0.8654,-0.8655,-0.8643,-0.8656,-0.8652,-0.8641,-0.864,-0.8622,-0.8643,-0.8626,-0.8625,-0.8625,-0.8583,-0.8574,-0.8541,-0.8598,-0.8598,-0.8597,0,-0.8684,-0.8677,-0.865,-0.8648,-0.8643,-0.8631,-0.8622,-0.8613,-0.8608,-0.8609,-0.8603,-0.861,-0.8594,-0.861,-0.8588,-0.8602,-0.8596,-0.8595,-0.8594,-0.859,-0.8608,-0.8577,-0.8531,-0.8525,-0.859,-0.8591,-0.8591,0,-0.865,-0.8634,-0.8616,-0.8613,-0.861,-0.8601,-0.86,-0.8596,-0.859,-0.8582,-0.8578,-0.8568,-0.8563,-0.8555,-0.8558,-0.857,-0.8535,-0.8552,-0.8535,-0.8534,-0.8525,-0.8525,-0.8475,-0.8524,-0.8524,-0.8524,-0.8524,0,-0.861,-0.8593,-0.8601,-0.8589,-0.857,-0.8578,-0.8559,-0.8558,-0.8555,-0.8543,-0.8554,-0.8542,-0.8549,-0.8538,-0.854,-0.8521,-0.8519,-0.8519,-0.8519,-0.8516,-0.8516,-0.851,-0.8512,-0.8523,-0.8523,-0.8523,-0.8524,0,-0.8568,-0.8573,-0.8554,-0.8553,-0.8553,-0.8539,-0.8538,-0.8527,-0.8529,-0.8514,-0.8511,-0.8514,-0.8501,-0.8505,-0.8491,-0.8493,-0.8469,-0.8473,-0.847,-0.847,-0.8452,-0.8453,-0.8395,-0.8387,-0.8443,-0.8443,-0.8442,0,-0.8541,-0.8528,-0.8527,-0.852,-0.8518,-0.8507,-0.8501,-0.8509,-0.8502,-0.8496,-0.8485,-0.8474,-0.8466,-0.8445,-0.8446,-0.8435,-0.8438,-0.8419,-0.8437,-0.8434,-0.8436,-0.8436,-0.8434,-0.8414,-0.8414,-0.8413,-0.8413,0,-0.8493,-0.8496,-0.8487,-0.8479,-0.8472,-0.8466,-0.8461,-0.8454,-0.8462,-0.8453,-0.8441,-0.8435,-0.8422,-0.841,-0.8401,-0.8399,-0.8406,-0.8408,-0.8403,-0.8399,-0.8397,-0.8396,-0.8458,-0.8408,-0.8409,-0.8409,-0.8409,-0.8409,-0.8456,-0.8445,-0.8442,-0.8432,-0.8429,-0.8425,-0.8414,-0.8416,-0.8406,-0.8396,-0.8402,-0.8387,-0.8384,-0.8372,-0.8369,-0.8358,-0.8365,-0.8358,-0.8356,-0.8354,-0.8351,-0.8401,-0.8356,-0.8356,-0.8357,-0.8357,-0.8357,0,-0.8406,-0.8406,-0.8396,-0.8389,-0.8381,-0.8392,-0.8387,-0.8379,-0.8366,-0.8363,-0.8354,-0.8341,-0.833,-0.833,-0.832,-0.8311,-0.8314,-0.8308,-0.8307,-0.8306,-0.8346,-0.835,-0.8305,-0.8305,-0.8305,-0.8305,-0.8305,-0.8305,-0.8379,-0.8361,-0.8364,-0.8344,-0.8344,-0.8331,-0.8327,-0.8322,-0.8319,-0.8304,-0.8295,-0.8296,-0.8294,-0.8284,-0.8274,-0.8274,-0.8269,-0.8261,-0.8262,-0.8299,-0.8304,-0.8308,-0.8312,-0.826,-0.826,-0.8224,-0.8224,-0.8223]},{"header":{"parameterUnit":"m.s-1","parameterCategory":1,"la1":30.2991,"la2":30.254,"lo1":-89.0895,"lo2":-89.0444,"dy":0.0017,"dx":0.0017,"nx":28,"ny":28,"refTime":"2023-06-28T21:00:00:Z","depth":0,"parameterNumber":3,"parameterNumberName":"V-component_of_WINDS"},"data":[0,0,0,0,0,0,0,0,0,0,0,0,0,0,0,0,0,0,0,0,0,0,0,0,0,0,0,0,0,0,0,0,0,0,0,0,0,0,0,0,0,0,0,0,0,0,0,0,0,0,0,0,0,0,0,0,0,0,2.0004,2.0004,0,1.9981,1.9981,1.998,1.9929,1.9928,1.9927,1.9926,1.9903,1.9904,1.9904,0,0,0,0,0,0,0,0,0,0,0,0,0,2.0007,2.0007,2.0005,2.0004,2.0004,1.9981,1.9981,1.998,1.993,1.9928,1.9927,1.9926,1.9903,1.9904,1.9904,0,0,0,0,0,0,0,0,0,0,0,0,0,1.9997,2.0007,2.0005,1.9976,1.9973,1.9981,1.9981,1.998,1.993,1.9928,1.9927,1.9925,1.9903,1.9904,1.9904,1.9938,0,0,1.9906,1.9906,0,0,0,0,0,0,0,0,1.9998,1.9997,1.998,1.9978,1.9975,1.9956,1.9973,1.9966,1.993,1.9946,1.9926,1.9925,1.9922,1.9921,1.992,1.9937,1.9936,1.9906,1.9906,1.9906,1.9907,0,0,0,0,0,0,0,1.9998,1.9998,1.9995,1.998,1.9977,1.9964,1.9961,1.9971,1.9943,1.9945,1.9941,1.9939,1.9921,1.992,1.9919,1.9936,1.9906,1.9906,1.9907,1.9907,1.998,1.9981,0,0,0,0,0,0,2.0003,1.9999,1.9996,1.9994,1.9982,1.9966,1.9962,1.9964,1.9943,1.9938,1.994,1.9937,1.992,1.9919,1.9918,1.9957,1.9906,1.9907,1.9907,1.9978,1.998,1.9982,0,0,0,0,0,0,2.0003,2.0003,1.9997,1.9995,1.9994,1.9967,1.997,1.9964,1.9963,1.994,1.9935,1.9945,1.9918,1.9918,1.9934,1.9955,1.9907,1.9908,1.9976,1.9979,1.9981,2.0035,0,0,0,0,0,0,2.0004,2.0004,2.0016,1.9996,1.9994,2.0013,1.9971,1.9965,1.9964,1.9959,1.9942,1.9938,1.9917,1.9933,1.9934,1.9955,1.9908,1.9974,1.9977,1.998,2.0031,2.0039,2.0045,0,0,0,0,0,2.0004,2.0033,2.0017,2.0017,2.0009,2.0014,2.0013,1.9988,1.9966,1.9979,1.9964,1.9939,1.9953,1.9935,1.9936,1.9958,1.9973,1.9977,1.998,2.0028,2.0037,2.0045,0,0,0,0,0,0,2.0056,2.0029,2.0012,2.0035,2.0027,2.0005,2.002,1.9999,1.9997,1.9992,1.9962,1.9958,1.9979,1.997,1.995,1.999,1.9959,1.9963,1.9995,2.0004,2.0011,2.0013,1.9908,0,0,0,0,0,2.0071,2.0076,2.0053,2.0075,2.0072,2.0047,2.0048,2.003,2.002,2.0017,2.0003,1.9995,1.9997,2.0,2.0001,2.0029,2.0025,2.0044,2.0052,2.0058,2.0062,2.0076,2.0084,1.9994,1.9994,1.9994,0,0,2.01,2.0086,2.0092,2.0085,2.0077,2.0084,2.0045,2.0054,2.0059,2.0018,2.0032,2.0022,2.0011,2.0034,2.0043,2.0027,2.0085,2.0062,2.0067,2.0068,2.008,2.0089,2.0097,1.9996,1.9996,1.9996,0,0,2.0157,2.0147,2.0165,2.0157,2.0145,2.0128,2.0133,2.0114,2.0105,2.0119,2.0089,2.0094,2.01,2.0093,2.0091,2.0145,2.0123,2.0147,2.0185,2.0199,2.0206,2.0212,2.0232,2.0239,2.0151,2.0151,2.0151,0,2.0196,2.0205,2.0177,2.0188,2.0186,2.0149,2.0167,2.0161,2.015,2.015,2.0132,2.0138,2.0128,2.0148,2.0162,2.0161,2.0165,2.0149,2.0207,2.0213,2.0218,2.0237,2.0244,2.0154,2.0153,2.0153,2.0153,0,2.0253,2.026,2.0275,2.0265,2.0265,2.0279,2.0254,2.0257,2.0239,2.0224,2.0238,2.0225,2.0223,2.0226,2.0208,2.0244,2.0235,2.0212,2.0181,2.023,2.0247,2.0254,2.0158,2.0157,2.0156,2.0155,0,0,2.0343,2.0317,2.0323,2.0318,2.0302,2.0306,2.0319,2.0317,2.032,2.0314,2.0324,2.0329,2.0308,2.0305,2.0286,2.0299,2.0343,2.0275,2.0274,2.0288,2.0382,2.0399,2.0408,2.0328,2.0329,2.033,2.0383,0,2.0397,2.0417,2.0392,2.0417,2.0423,2.0388,2.0399,2.0391,2.0377,2.0381,2.0366,2.037,2.0342,2.034,2.0351,2.0336,2.0362,2.0331,2.0337,2.0338,2.0341,2.0416,2.0434,2.0485,2.0389,2.039,2.0391,0,2.0462,2.0458,2.0485,2.0466,2.0468,2.0478,2.0474,2.0477,2.0467,2.0456,2.0453,2.043,2.0441,2.0411,2.0426,2.0406,2.0407,2.04,2.0401,2.0401,2.0368,2.0418,2.05,2.0508,2.0401,2.04,2.04,0,2.0526,2.0527,2.0543,2.0539,2.0519,2.0527,2.0518,2.0506,2.0506,2.0503,2.0502,2.05,2.0499,2.0498,2.0475,2.0455,2.0494,2.0461,2.0486,2.0486,2.0496,2.0495,2.0579,2.0496,2.0496,2.0496,2.0495,0,2.0588,2.0606,2.0571,2.0581,2.0599,2.057,2.059,2.0578,2.0567,2.0574,2.0544,2.0552,2.0521,2.0525,2.0507,2.0523,2.0523,2.0514,2.051,2.0517,2.0518,2.0518,2.0514,2.0498,2.0497,2.0497,2.0496,0,2.0663,2.064,2.0655,2.0633,2.0629,2.0643,2.0625,2.0633,2.0618,2.0627,2.0628,2.0603,2.0606,2.0583,2.0582,2.057,2.0595,2.0584,2.0599,2.0595,2.0621,2.0619,2.0708,2.0718,2.0628,2.0629,2.0629,0,2.0704,2.0717,2.0697,2.0699,2.0692,2.0696,2.0696,2.0668,2.0669,2.0658,2.0668,2.0669,2.0668,2.0675,2.0657,2.0656,2.0645,2.0676,2.0645,2.0652,2.0646,2.0646,2.0647,2.0683,2.0684,2.0685,2.0686,0,2.0781,2.0769,2.0769,2.0766,2.0766,2.0763,2.0757,2.0761,2.073,2.0733,2.0736,2.0735,2.0734,2.0735,2.0731,2.0723,2.07,2.0696,2.0701,2.071,2.0718,2.0714,2.0617,2.0694,2.0693,2.0693,2.0692,2.0692,2.084,2.085,2.0837,2.0839,2.0831,2.0826,2.0833,2.0818,2.082,2.0816,2.08,2.0806,2.0795,2.0786,2.078,2.0785,2.077,2.0778,2.078,2.0783,2.0787,2.0717,2.0784,2.0784,2.0783,2.0783,2.0783,0,2.0915,2.0905,2.0907,2.09,2.0901,2.0878,2.0871,2.0874,2.0879,2.087,2.087,2.0873,2.0874,2.0857,2.0855,2.0862,2.0852,2.0863,2.0862,2.0861,2.0801,2.0796,2.0872,2.0872,2.0872,2.0872,2.0872,2.0872,2.0955,2.0969,2.0956,2.0967,2.0957,2.0962,2.096,2.0955,2.0948,2.0953,2.0954,2.0942,2.093,2.0927,2.0927,2.0922,2.0923,2.0938,2.093,2.0874,2.0865,2.0857,2.0852,2.0939,2.0939,2.0989,2.099,2.099]}]]